Location: Newark
(51.3318°N, 0.0053°E)
Time: 08:32:20
(UTC+00:00)

CAS-6 - Pass Details

Date: 04 July 2022
Orbit: 613 x 634 km, 97.9° (Epoch: 09 August)

Event Time Altitude Azimuth Distance (km) Brightness Sun altitude
Exits shadow 22:35:05 16° 191° (S) 1,636 ? -13.3°
Maximum altitude 22:38:19 47° 261° (W) 831 ? -13.5°
Drops below altitude 10° 22:42:32 10° 336° (NNW) 1,999 ? -13.7°
Sets 22:44:48 0° 342° (NNW) 2,907 ? -13.8°
